Location: Basses Si�yes
(44.0835°N, 6.2037°E)
Time: 13:47:26
(UTC+00:00)

Meteor 1-18 Rocket - Pass Details

Date: 27 February 2020
Orbit: 836 x 909 km, 81.2° (Epoch: 27 March)

Event Time Altitude Azimuth Distance (km) Brightness Sun altitude
Rises 18:31:15 0° 350° (N) 3,539 7.6 -13.5°
Reaches altitude 10° 18:33:44 10° 352° (N) 2,587 6.9 -14.0°
Maximum altitude 18:39:39 80° 80° (E) 910 4.2 -15.1°
Drops below altitude 10° 18:45:25 10° 167° (SSE) 2,525 6.5 -16.1°
Sets 18:47:50 0° 168° (SSE) 3,448 7.2 -16.5°
